EW5627 Weather Reports


time (UTC)temp
C
wind
direction
speed
KPH
gust
KPH
rain 1hr
cm
rain 24hr
cm
rain mn
cm
humidity
%
barometer
mb
20260506061505 14 180 0.0 0.0 0.00 0.00 0.00 82 1008.8
20260506044548 16 170 0.0 0.0 0.00 0.00 0.00 72 1009.3
20260506043046 16 212 0.0 0.0 0.00 0.00 0.00 71 1009.4
20260506041544 16 178 0.0 0.0 0.00 0.00 0.00 71 1009.2
20260506040043 17 217 0.0 0.0 0.00 0.00 0.00 70 1009.1
20260506034541 17 204 0.0 0.0 0.00 0.00 0.00 70 1009.2
20260506033040 17 196 0.0 0.0 0.00 0.00 0.00 69 1009.3
20260506031540 17 195 0.0 0.0 0.00 0.00 0.00 69 1009.1
20260506030039 17 199 0.0 0.0 0.00 0.00 0.00 68 1009.1
20260506024547 17 197 0.0 0.0 0.00 0.00 0.00 67 1009.1
20260506023038 18 189 0.0 1.6 0.00 0.00 0.00 67 1009.2
20260506021537 18 208 0.0 1.6 0.00 0.00 0.00 67 1009.1
20260506020040 18 190 0.0 0.0 0.00 0.00 0.00 67 1009.1
20260506014536 18 213 0.0 1.6 0.00 0.00 0.00 66 1008.9
20260506013037 17 212 0.0 1.6 0.00 0.00 0.00 67 1008.7
20260506011600 17 168 0.0 1.6 0.00 0.00 0.00 68 1008.6
20260506010034 17 198 0.0 1.6 0.00 0.00 0.00 68 1008.4
20260506004542 17 182 0.0 3.2 0.00 0.00 0.00 67 1008.3
20260506003033 18 222 0.0 1.6 0.00 0.00 0.00 65 1008.1
20260506001536 18 161 0.0 1.6 0.00 0.00 0.00 64 1007.9
20260506000051 18 186 0.0 1.6 0.00 0.00 0.00 63 1007.9
20260505234542 19 207 0.0 0.0 0.00 0.00 0.00 63 1007.7
20260505233033 20 165 0.0 0.0 0.00 0.00 0.00 62 1007.5
20260505231530 20 146 0.0 1.6 0.00 0.00 0.00 61 1007.2
20260505230050 20 209 0.0 0.0 0.00 0.00 0.00 59 1006.9
20260505224537 20 209 0.0 1.6 0.00 0.00 0.00 58 1006.8
20260505223027 21 226 0.0 1.6 0.00 0.00 0.00 57 1006.7
20260505221527 21 163 0.0 0.0 0.00 0.00 0.00 56 1006.8
20260505220026 21 148 0.0 0.0 0.00 0.00 0.00 54 1006.8
20260505214529 22 130 0.0 1.6 0.00 0.00 0.00 53 1006.6
20260505213026 23 234 0.0 0.0 0.00 0.00 0.00 52 1006.5
20260505211528 23 178 0.0 0.0 0.00 0.00 0.00 51 1006.5
20260505210025 23 209 0.0 0.0 0.00 0.00 0.00 49 1006.3
20260505204519 24 259 0.0 4.8 0.00 0.00 0.00 52 1006.5
20260505203017 24 191 0.0 0.0 0.00 0.00 0.00 51 1006.7
20260505201515 25 184 0.0 0.0 0.00 0.00 0.00 50 1006.7
20260505200013 24 170 0.0 0.0 0.00 0.00 0.00 51 1006.8
20260505194513 25 190 0.0 0.0 0.00 0.00 0.00 50 1007.0
20260505193010 25 202 0.0 0.0 0.00 0.00 0.00 49 1007.3
20260505191509 25 175 0.0 1.6 0.00 0.00 0.00 51 1007.3
20260505190007 25 171 0.0 3.2 0.00 0.00 0.00 48 1007.6
20260505184505 26 271 0.0 0.0 0.00 0.00 0.00 48 1007.7
20260505183002 26 156 0.0 0.0 0.00 0.00 0.00 47 1007.9
20260505181601 26 161 0.0 0.0 0.00 0.00 0.00 46 1007.9
20260505180105 26 227 0.0 0.0 0.00 0.00 0.00 44 1008.0
20260505174557 26 161 0.0 0.0 0.00 0.00 0.00 46 1008.1
20260505173112 26 236 0.0 0.0 0.00 0.00 0.00 48 1008.2
20260505171613 26 168 0.0 3.2 0.00 0.00 0.00 48 1008.3
20260505170050 26 287 0.0 0.0 0.00 0.00 0.00 47 1008.5
20260505164548 26 228 0.0 0.0 0.00 0.00 0.00 47 1008.6
20260505163045 26 256 0.0 0.0 0.00 0.00 0.00 48 1008.9
20260505161540 25 273 0.0 0.0 0.00 0.00 0.00 54 1009.1
20260505153032 23 213 0.0 0.0 0.00 0.00 0.00 49 1009.6
20260505151527 23 170 0.0 0.0 0.00 0.00 0.00 51 1009.6
20260505124553 15 206 0.0 0.0 0.00 0.00 0.00 75 1009.8
20260505123054 15 248 0.0 0.0 0.00 0.00 0.00 76 1009.9
20260505121611 15 175 0.0 0.0 0.00 0.00 0.00 77 1009.6
20260505120038 13 225 0.0 1.6 0.00 0.00 0.00 77 1009.4
20260505114537 13 213 0.0 0.0 0.00 0.00 0.00 80 1009.9
20260505113036 12 208 0.0 0.0 0.00 0.00 0.00 82 1010.2
20260505111539 12 204 0.0 0.0 0.00 0.00 0.00 85 1010.0
20260505101524 11 202 0.0 0.0 0.00 0.00 0.00 85 1009.4
20260505100034 11 198 0.0 0.0 0.00 0.00 0.00 86 1009.2
20260505094522 11 187 0.0 0.0 0.00 0.00 0.00 85 1009.1
20260505093027 11 197 0.0 0.0 0.00 0.00 0.00 85 1008.9
20260505091527 11 200 0.0 0.0 0.00 0.00 0.00 84 1009.1
20260505090020 11 221 0.0 0.0 0.00 0.00 0.00 83 1008.9
20260505084522 12 231 0.0 0.0 0.00 0.00 0.00 82 1008.8
20260505083025 11 213 0.0 0.0 0.00 0.00 0.00 82 1008.9
20260505081517 12 205 0.0 0.0 0.00 0.00 0.00 81 1009.1
20260505080011 12 198 0.0 1.6 0.00 0.00 0.00 79 1009.1
20260505074511 12 205 0.0 1.6 0.00 0.00 0.00 78 1009.0
20260505073007 12 174 0.0 0.0 0.00 0.00 0.00 76 1008.9
20260505071504 13 201 0.0 0.0 0.00 0.00 0.00 74 1008.9